Lid_Strength_Index
-0 -1 -0 1 7 7 10 9 6 7 7 4 4 5 6 5 8 10 1 -0 -1 -0 -1 -1 -1 -1 -1 -1 -1 -1 -1 -1 -1 -1 -1 -1 -1 -1 -1 -1 -1 -1 -1 -1 -1 -1 -1 -1 -1
-0 1 1 3 9 12 11 6 8 6 5 4 4 5 6 7 3 3 2 -0 -1 -1 -1 -1 -1 -1 -1 -1 -1 -1 -1 -1 -1 -1 -1 -1 -1 -1 -1 -1 -1 -1 -1 -1 -1 -1 -1 -1 -1
1 1 3 5 8 11 10 8 6 5 4 4 5 4 5 6 3 2 0 -0 -1 -0 -1 -1 -1 -1 -1 -1 -1 -1 -1 -1 -1 -1 -1 -1 -1 -1 -1 -1 -1 -1 -1 -1 -1 -1 -1 -1 -1
2 2 3 6 9 8 7 8 5 5 4 4 4 6 3 2 2 1 -0 -0 -0 -1 -1 -1 -1 -1 -1 -1 -1 -1 -1 -1 -1 -1 -1 -1 -1 -1 -1 -1 -1 -1 -1 -1 -1 -1 -1 -1 -1
2 3 6 7 8 6 5 4 4 5 5 5 4 6 5 2 1 0 -0 -0 -0 -0 -1 -1 -1 -1 -1 -1 -1 -1 -1 -1 -1 -1 -1 -1 -1 -1 -1 -1 -1 -1 -1 -1 -1 -1 -1 -1 -1
4 3 7 8 8 6 5 4 4 5 4 5 5 5 4 1 1 1 -0 -0 -1 -0 -1 -1 -1 -1 -1 -1 -1 -1 -1 -1 -1 -1 -1 -1 -1 -1 -1 -1 -1 -1 -1 -1 -1 -1 -1 -1 -1
4 5 7 7 7 6 5 3 5 5 5 6 3 6 4 2 1 0 -0 -0 -1 -1 -1 -1 -1 -1 -1 -1 -1 -1 -1 -2 -2 -2 -2 -2 -1 -1 -1 -1 -1 -1 -1 -1 -1 -1 -1 -1 -1
3 4 7 6 7 7 4 4 3 4 5 2 2 5 7 3 1 0 -0 -0 -0 -0 -1 -1 -1 -1 -1 -1 -1 -1 -2 -2 -2 -2 -2 -2 -2 -2 -1 -2 -2 -2 -1 -1 -1 -1 -1 -1 -1
2 6 7 7 7 6 4 5 3 3 4 3 2 2 2 1 1 1 1 1 1 0 -0 -1 -1 -1 -1 -1 -1 -1 -1 -1 -1 -1 -1 -1 -2 -2 -2 -2 -3 -2 -2 -2 -1 -1 -1 -1 -1
4 6 6 5 4 5 4 4 4 4 4 4 3 2 1 1 1 2 2 2 2 1 0 -0 -1 -1 -1 -1 -1 -1 -1 -1 -1 -1 -1 -1 -1 -2 -1 -2 -2 -2 -2 -1 -1 -1 -1 -1 -1
4 6 5 5 4 4 4 4 3 4 5 4 4 3 2 2 2 2 2 2 2 1 0 -0 -1 -1 -1 -1 -1 -1 -1 -1 -1 -1 -1 -2 -1 -2 -1 -1 -1 -1 -1 -1 -1 -1 -1 -1 -1
5 4 4 4 4 4 5 3 4 4 4 3 2 2 2 2 2 2 1 2 1 2 0 -0 -1 -1 -1 -1 -1 -1 -1 -1 -1 -1 -2 -2 -1 -1 -1 -1 -1 -1 -1 -1 -1 -1 -0 -1 -1
5 5 4 4 4 4 4 4 4 4 3 2 2 2 2 2 2 1 1 1 1 1 0 0 -1 -1 -1 -1 -1 -1 -1 -1 -1 -2 -2 -2 -1 -1 -1 -1 -1 -1 -1 -1 -1 -0 -0 -0 -0
4 4 4 4 4 4 4 4 4 4 3 3 3 2 2 2 2 1 1 1 1 1 1 -0 -0 -1 -1 -1 -1 -1 -1 -2 -2 -2 -2 -2 -2 -2 -1 -1 -1 -1 -1 -1 -1 -1 -0 0 0
4 5 5 4 4 5 4 6 6 4 3 3 3 3 2 2 1 2 1 1 1 1 0 1 0 -1 -1 -1 -1 -0 -0 -1 -1 -1 -2 -2 -2 -2 -2 -1 -1 -1 -2 -2 -2 -1 -1 -0 -0
5 5 7 5 4 4 4 8 5 3 3 4 3 3 3 2 2 1 1 1 0 0 1 0 -0 -0 -0 -1 -1 -1 -2 -2 -2 -2 -2 -2 -2 -2 -3 -1 -1 -2 -2 -1 -1 -1 -0 -0 -0
6 8 8 7 4 5 5 7 5 3 4 4 4 3 3 3 2 1 1 1 0 0 1 1 0 0 1 0 -1 -1 -2 -2 -2 -2 -2 -2 -2 -2 -2 -1 -2 -2 -1 -1 -1 -0 -0 0 0
8 8 7 8 5 5 6 6 5 4 4 4 4 4 3 3 3 1 1 1 0 -0 -0 0 -0 -0 -1 -1 -1 -1 -1 -1 -2 -2 -2 -2 -2 -2 -2 -1 -2 -2 -1 -1 -0 -0 -1 -0 0
6 7 8 7 5 6 6 6 6 4 4 5 4 4 4 3 2 1 1 1 0 -0 0 -0 -0 -1 -1 -0 0 0 0 -1 -1 -1 -2 -2 -2 -2 -2 -1 -2 -2 -1 -1 -1 -0 -0 0 -0
6 7 7 6 6 6 6 7 6 5 5 4 4 4 4 3 2 2 1 1 1 1 0 -0 -0 -1 -1 -0 -1 -0 -0 -0 -1 -1 -2 -2 -2 -2 -2 -2 -1 -1 -1 -1 -1 -1 1 0 -0
7 7 7 8 6 6 6 7 7 5 5 4 4 3 3 3 3 2 2 1 1 1 0 0 -0 -1 -1 -1 -1 -1 -1 -0 0 -0 -0 -1 -2 -2 -2 -2 -1 -1 -1 -0 -1 -1 -0 1 0
8 6 7 7 8 10 6 11 8 6 6 5 5 4 4 3 3 2 2 1 1 0 -0 -0 -1 -1 -1 -1 -0 -0 1 2 1 0 -0 -1 -2 -2 -2 -2 -2 -1 -1 -0 -1 -1 -1 -0 1
7 6 7 7 8 8 8 9 8 6 7 6 5 4 4 3 3 2 2 1 1 0 0 -0 -1 -1 -1 -1 -1 0 0 0 -0 -0 -0 -1 -1 -2 -2 -2 -1 -1 -1 -1 -1 -1 -1 -0 0
6 7 6 6 8 11 9 9 9 8 7 6 5 4 4 3 2 2 1 1 1 0 0 -0 -0 -1 -1 -1 -1 -1 0 0 1 0 1 0 -0 -1 -1 -1 -1 -1 -1 -1 -0 -1 -1 -0 -0
6 7 11 12 11 12 8 9 8 7 6 5 5 4 4 3 2 2 2 2 1 1 0 0 -0 -0 -1 -1 -0 -0 -0 -0 0 0 1 0 0 0 -1 -1 -1 -0 -1 -1 -1 -1 -0 -0 0
8 8 11 14 13 11 8 11 9 6 5 4 4 4 3 3 2 2 2 1 1 1 0 0 0 0 -0 -1 -0 -1 -1 -0 0 -0 0 0 0 -0 -1 -1 -1 -1 -1 -1 -1 -0 -0 -1 -0
8 8 7 9 9 11 10 8 6 6 6 5 4 4 4 3 3 2 2 1 1 1 0 0 0 0 -0 -0 -0 -0 -0 -0 -0 -0 -0 -0 -1 -0 -1 -1 -1 -1 -0 -1 -1 0 0 -0 -0
7 6 10 9 15 14 11 10 10 8 7 5 5 4 4 3 3 2 2 2 1 1 0 0 0 0 -0 -0 -0 -0 -0 -0 -1 -0 0 0 -0 -1 -0 -0 -0 -1 -1 -1 -0 0 -0 0 0
7 8 8 8 10 13 14 11 6 7 6 5 5 4 4 4 3 2 2 1 1 1 0 0 0 0 0 -0 -0 -0 -0 -0 -0 0 -0 -0 -1 -0 -0 -0 0 0 -0 -0 -0 0 0 1 1
6 7 8 11 13 10 11 11 6 5 5 5 5 4 4 3 3 2 2 1 1 1 1 1 0 0 0 -0 -0 0 1 1 1 2 2 2 2 1 1 1 1 1 -0 -0 0 1 1 1 1